www.pogodaiklimat.ru
ПОГОДА в Кисуму
Время
(UTC), дата
15 19.10
18 19.10
21 19.10
00 20.10
03 20.10
06 20.10
09 20.10
12 20.10
15 20.10
18 20.10
21 20.10
00 21.10
03 21.10
06 21.10
09 21.10
12 21.10
15 21.10
18 21.10
21 21.10
00 22.10
03 22.10
06 22.10
09 22.10
12 22.10
15 22.10
18 22.10
21 22.10
00 23.10
03 23.10
06 23.10
09 23.10
12 23.10
15 23.10
18 23.10
21 23.10
00 24.10
03 24.10
06 24.10
09 24.10
12 24.10
15 24.10
18 24.10
21 24.10
00 25.10
03 25.10
06 25.10
09 25.10
12 25.10
15 25.10
18 25.10
21 25.10
00 26.10
03 26.10
06 26.10
09 26.10
12 26.10
Ветер
(напр.,м/с)
Видим. Явления Облачность Т
(С)
Тd
(С)
f
(%)
Тe
(С)
Тes
(С)
Комфортность P
(гПа)
Po
(гПа)
Тmin
(С)
Tmax
(С)
R
(мм)
R24
(мм)
S
(см)
СВ 4 30 км гроза без осадков 9/3 600 м
[Cb cap Ac trans Ci fib]
+21.6 +15.8 69 +26 +28 душно 1015.0 742.1
СЗ 3 30 км слаб. дождь {гроза, морось} 9/1 540 м
[Cb cap Ac trans]
+19.7 +18.0 90 +23 +23 комфорт 1016.0 741.3 +28.0 2
СВ 2 30 км 8/1 540 м
[Cb cap Ac trans]
+20.0 +19.0 94 +24 +24 комфорт 1016.0 741.2
СЗ 2 30 км 8/1 540 м
[Cb cap Ac trans Ci fib]
+19.3 +16.9 86 +22 +22 комфорт 1014.0 739.9
штиль 0 30 км 6/1 540 м
[Cu med, cong Ac trans Ci fib]
+20.3 +16.4 78 +23 +23 комфорт 1015.0 740.9
В 2 30 км 6/1 630 м
[Cu hum Ac trans]
+23.5 +16.2 64 +27 +31 душно 1017.0 743.8 +19.3 2 2
ЮЗ 3 30 км 6/3 630 м
[Cu med, cong Ac und]
+25.0 +19.0 69 +30 +32 душно 1016.0 743.9
ЮЗ 5 30 км 6/3 700 м
[Cb cap Ac trans]
+28.9 +18.8 55 +34 +39 очень
душно
1013.0 743.1
СЗ 3 30 км слаб. дождь 8/3 570 м
[Cb cap Ac As]
+20.5 +19.0 88 +26 +29 душно 1014.0 740.3
СЗ 3 30 км гроза, ливневой дождь 8/3 500 м
[Cb cap Ac trans]
+18.3 +17.3 94 +19 +19 1017.0 741.8 +29.0 29
С 2 10 км 8/2 510 м
[Ac]
+19.0 +18.0 94 +21 +21 комфорт 1017.0 888.0
СВ 2 30 км 6/3 500 м
[Cb cap Ac trans Ci fib]
+18.8 +17.6 93 +21 +21 комфорт 1016.0 742.0 3
штиль 0 30 км 6/3 500 м
[Cb cap Ac trans Ci fib]
+18.7 +17.7 94 +20 +20 1016.0 741.2
штиль 0 30 км 6/3 570 м
[Cb cap Ac und]
+22.9 +17.2 70 +28 +32 душно 1018.0 744.5 +17.0 32
ЮЗ 4 30 км 5/3 700 м
[Cb cap Ac trans Ci fib]
+25.6 +17.9 62 +30 +39 душно 1017.0 745.0
Ю 2 30 км 5/3 700 м
[Cb cap Ac trans]
+24.7 +16.0 57 +28 +34 душно 1014.0 742.3
З 2 30 км 6/3 630 м
[Cb cap Ac trans]
+23.1 +18.1 73 +29 +29 очень
душно
1015.0 742.0
С 3 30 км 6/3 570 м
[Cb cap Ac trans]
+22.0 +18.0 78 +27 +27 душно 1016.0 742.5 +27.1 0.0
штиль 0 30 км 6/3 570 м
[Cb cap Ac trans]
+21.7 +18.1 78 +27 +27 душно 1016.0 742.7
В 2 30 км 5/3 570 м
[Sc Ac trans]
+20.1 +17.9 87 +24 +24 комфорт 1016.0 741.5
СВ 2 30 км 5/0
[Ac trans Ci fib]
+18.4 +16.9 91 +20 +20 1017.0 741.6
Ю 2 30 км 3/1 660 м
[Cu med, cong Ac trans]
+24.4 +15.4 57 +27 +33 жарко 1018.0 745.4 +18.3 0.0
ЮЗ 4 30 км 3/1 750 м
[Cu med, cong Ci fib]
+25.6 +17.1 59 +29 +42 душно 1017.0 745.5
ЮЗ 7 30 км 5/3 840 м
[Cb cap Ac trans Ci fib]
+29.0 +17.7 51 +33 +36 очень
душно
1013.0 743.3
СЗ 2 30 км гроза без осадков 9/3 700 м
[Cb cap Ac und]
+23.7 +16.3 63 +27 +27 жарко 1014.0 742.5
штиль 0 30 км 8/1 600 м
[Cb cap Ac trans]
+22.3 +17.4 74 +27 +27 душно 1017.0 743.4 +29.2
С 2 30 км 6/1 540 м
[Cb cap Ac trans]
+21.6 +18.2 81 +26 +26 душно 1017.0 718.3
В 1 30 км 6/1 540 м
[Cb cap Ac trans Ci fib]
+20.5 +18.8 88 +27 +27 душно 1016.0 741.7
В 2 30 км 6/1 540 м
[Cb cap Ac trans Ci fib]
+20.0 +18.0 88 +24 +25 комфорт 1016.0 887.6
ЮВ 2 30 км 6/1 660 м
[Cu med, cong Ac trans]
+23.9 +16.7 64 +27 +32 жарко 1019.0 745.9 +19.1
ЮЗ 4 30 км 4/4 800 м
[Cb cap Ac trans]
+26.8 +17.6 57 +31 +39 душно 1018.0 721.9
ЮЗ 4 30 км 5/3 840 м
[Cb cap Ac trans]
+28.8 +16.9 49 +33 +38 очень
душно
1015.0 744.4
Ю 6 30 км гроза без осадков 9/3 700 м
[Cb cap Ac und]
+23.0 +16.6 67 +28 +28 душно 1015.0 742.2
С 2 30 км 8/3 570 м
[Cb cap Ac trans]
+21.4 +16.2 72 +25 +25 комфорт 1018.0 718.4 +29.2
В 2 30 км 8/1 540 м
[Cb cap Ac und]
+21.0 +16.7 76 +25 +25 комфорт 1018.0 743.4
СЗ 2 30 км 6/1 540 м
[Cb cap Ac und]
+20.3 +18.2 88 +23 +23 комфорт 1016.0 717.9 0.2
С 1 30 км 6/1 540 м
[Cb cap Ac trans]
+20.8 +16.3 75 +25 +25 комфорт 1016.0 742.3
В 3 30 км 3/1 700 м
[Cu med, cong Ac trans]
+25.2 +16.8 61 +29 +42 душно 1018.0 745.7 0.2 0.2
Ю 4 30 км 3/3 800 м
[Cu med, cong Ac trans]
+28.3 +15.6 46 +31 +41 душно 1016.0 720.8
ЮЗ 5 30 км 5/5 840 м
[Cb cap Ac trans Ci ing]
+30.0 +14.4 39 +32 +36 жарко 1012.0 841.1
ЮЗ 4 25 км гроза без осадков 8/4 750 м
[Cb cap Ac As Ci ing]
+28.0 +20.0 62 +34 +36 очень
душно
1013.0 888.3
В 4 25 км в посл. час дождь {гроза} 9/4 570 м
[Sc Ac As]
+20.2 +17.2 83 +23 +23 комфорт 1016.0 741.8 +30.2 2
СВ 4 25 км 8/1 570 м
[Sc Ac und]
+19.8 +17.6 87 +22 +22 комфорт 741.3
С 2 25 км 6/1 570 м
[Sc Ac und Ci fib]
+20.3 +16.1 77 +24 +24 комфорт 740.1
СВ 2 30 км 6/1 570 м
[Sc Ac lent Ci fib]
+18.4 +16.3 88 +20 +20 740.0
штиль 0 30 км 8/1 700 м
[Cu med, cong Ac lent Ci fib]
+25.2 +17.2 61 +29 +34 душно 718.0 +17.7 2
ЮВ 2 30 км 8/3 800 м
[Cb calv Ac trans Ci fib]
+28.3 +16.8 51 +32 +42 душно 1014.0 743.8
ЮЗ 3 30 км 9/5 840 м
[Cb cap Ac cuf Ci sp]
+30.2 +16.3 43 +33 +37 душно 1011.0 839.6
В 5 30 км 9/4 700 м
[Cb cap Ac cuf Ci sp]
+23.0 +17.0 69 +28 +28 душно 1014.0 887.0
С 3 30 км 9/3 600 м
[Sc Ac und]
+21.7 +17.4 77 +26 +26 душно 1015.0 814.6 +30.5
штиль 0 30 км 8/1 570 м
[Sc Ac und Ci fib]
+21.5 +17.2 77 +26 +26 душно 1015.0 788.1
С 2 30 км 8/1 570 м
[Sc Ac und Ci fib]
+19.0 +16.0 83 +21 +21 комфорт 1013.0 884.4
С 2 30 км 9/3 570 м
[Sc Ac und]
+20.4 +18.1 88 +24 +24 комфорт 1016.0 741.4
ЮЗ 2 30 км 9/3 600 м
[Sc Ac und]
+24.0 +19.3 75 +29 +31 душно 1017.0 744.4 +19.2
Ю 4 30 км 8/3 800 м
[Cu med, cong Ac trans]
+27.2 +17.2 54 +31 +38 душно 1016.0 745.1
С 5 30 км 8/4 800 м
[Cb cap Ac trans]
+27.5 +17.3 54 +32 +34 очень
душно
742.7
Местоположение метеостанции Кисуму (Кения): широта -0.09 долгота 34.73 высота над уровнем моря 1157 м.
В архиве по умолчанию представлена погода в Кисуму за последнюю неделю. Архивные данные за месяц целиком и за предыдущие месяцы, начиная с января 2011 года, Вы можете получить, выбрав интересующий диапазон дат из раскрывающегося списка и нажав кнопку "Найти!".
*Определитесь, кто Вы:
Внимание! Время в таблицах - всемирное. Для получения местного времени необходимо прибавить поправку, которая равна 3 ч.
Смотрите также архив погоды в соседних городах и на ближайших метеорологических станциях:
Партнеры нашего сайта:      
Пояснения к столбцам:
  • Ветер - указаны скорость ветра в м/с - средняя за 10 мин, порывы в срок и между сроками (в фигурных скобках) и направление, откуда дует ветер: С - северный,
  • СВ - северо-восточный, В - восточный, ЮВ - юго-восточный, Ю - южный, ЮЗ - юго-западный, З - западный, СЗ - северо-западный.
  • Видимость - горизонтальная дальность видимости в метрах или километрах. При видимости от 1 до 10 км при отсутствии осадков обычно наблюдается дымка, при ухудшении видимости до 1 км и менее - туман. В сухую погоду видимость может ухудшаться дымом, пылью или мглою.
  • Явления - указаны атмосферные явления, наблюдавшиеся в срок или в последний час перед сроком; фигурными скобками обозначены явления, наблюдавшиеся между сроками (за 1-3 часа до срока); квадратными скобками обозначены град или гололедные отложения с указанием их диаметра в мм.
  • Облачность - указаны через наклонную черту общая и нижняя облачность в баллах и высота нижней границы облаков в метрах; квадратными скобками обозначены формы облаков: Ci - перистые, Cs - перисто-слоистые, Cc - перисто-кучевые, Ac - высококучевые, As - высокослоистые, Sc - слоисто-кучевые, Ns - слоисто-дождевые, Cu - кучевые, Cb - кучево-дождевые. Подробнее классификацию облаков см. в Атласе облаков (PDF).
  • T - Температура воздуха - температура, измеренная на высоте 2 м над землей.
  • Td - Температура точки росы - температура, при понижении до которой содержащийся в воздухе водяной пар достигнет насыщения.
  • f - Относительная влажность воздуха - влажноcть воздуха, измеренная на высоте 2 м над землей.
  • Te - Эффективная температура - температура, которую ощущает одетый по сезону человек в тени. Характеристика душности погоды. При расчете учитывается влияние влажности воздуха и скорости ветра на теплоощущения человека.
  • Tes - Эффективная температура на солнце - температура, которую ощущает человек, с поправкой на солнечный нагрев. Характеристика знойности погоды. Зависит от высоты солнца над горизонтом, облачности и скорости ветра. Ночью, в пасмурную погоду, а также при ветре 12 м/с и более поправка равна нулю.
  • P - Атмосферное давление - приведенное к уровню моря атмосферное давление.
  • Po - Атмосферное давление - измеренное на уровне метеостанции атмосферное давление.
  • Tmin - Минимальная температура - минимум температуры воздуха на высоте 2 м над землей.
  • Tmax - Максимальная температура - максимум температуры воздуха на высоте 2 м над землей.
  • R - Количество осадков - Количество выпавших осадков за период времени, мм. При наведении курсора мыши на число - период времени, за который выпало указанное количество осадков.
  • R24 - Количество осадков - Количество выпавших осадков за 24 часа, мм.
  • S - Снежный покров - Высота снежного покрова, см. При наведении курсора мыши на число - состояние снежного покрова и степень покрытия местности в баллах.